Temperature
7 6 6 6 6 7 7 6 6 5 5 4 3 3 2 2 1 1 1 1 1 1 2 2 2 2 2 2 3 3 3 3 3 3 3 4 4 4 4 4 4 4 4 4
6 6 6 6 6 6 6 6 5 5 4 4 3 2 2 1 1 0 0 1 1 1 1 1 2 2 2 2 2 2 2 2 2 2 2 2 3 3 3 3 3 3 3 3
7 6 6 6 6 6 6 5 5 5 4 3 3 3 2 1 1 0 0 1 1 1 1 1 1 1 1 1 1 1 1 1 1 2 2 2 2 2 2 2 2 2 2 2
5 5 6 6 5 6 5 5 5 4 4 3 3 3 3 1 -0 -0 -0 0 0 1 1 1 1 1 1 1 1 1 1 1 1 1 1 1 1 1 1 1 1 1 1 1
5 5 5 5 5 5 4 4 3 3 3 2 2 2 2 1 1 -0 -0 -0 1 1 1 1 1 1 0 0 0 0 0 0 0 0 0 0 0 0 0 0 0 1 1 1
4 4 4 4 4 4 3 3 3 2 2 3 2 2 2 0 0 0 -0 0 1 1 0 0 0 0 -0 -0 -0 -0 -1 -0 -0 -1 -1 -1 -1 -1 -0 -0 -0 -0 -0 -0
5 4 4 4 4 4 3 3 4 4 3 3 2 2 2 0 -0 -0 -1 -0 0 0 0 -0 -0 -0 -0 -1 -1 -1 -1 -1 -1 -1 -1 -1 -1 -1 -1 -1 -1 -1 -1 -1
5 4 4 3 4 3 3 4 4 4 3 2 1 1 1 -0 -0 -0 -0 -1 -0 -0 -0 -0 -0 -1 -1 -1 -1 -1 -2 -2 -2 -2 -2 -2 -2 -2 -2 -2 -2 -2 -2 -2
4 4 3 3 3 3 3 2 2 1 0 0 1 -0 -1 -1 -1 -1 -1 -1 -1 -1 -1 -1 -1 -1 -1 -1 -2 -2 -2 -2 -2 -2 -2 -3 -3 -3 -3 -3 -3 -3 -2 -2
3 3 2 2 3 2 2 1 0 1 2 2 1 0 1 -0 -1 -1 -2 -2 -1 -1 -1 -1 -1 -2 -2 -2 -2 -2 -3 -3 -3 -3 -3 -3 -3 -3 -3 -3 -3 -3 -3 -3
2 2 2 1 1 2 1 1 1 -0 0 1 1 2 0 -1 -1 -2 -2 -1 -1 -1 -1 -2 -2 -2 -2 -2 -3 -3 -3 -3 -3 -4 -4 -4 -4 -4 -4 -4 -4 -4 -4 -4
1 0 1 1 1 1 1 1 -0 1 0 -1 -1 1 -1 -2 -2 -2 -2 -2 -2 -2 -2 -2 -3 -3 -3 -3 -3 -3 -4 -4 -4 -4 -4 -4 -4 -4 -4 -4 -4 -4 -4 -4
0 0 2 2 1 -0 -0 -0 -1 -1 -1 -2 -2 1 -2 -3 -3 -2 -2 -2 -2 -2 -3 -3 -3 -3 -3 -4 -4 -4 -4 -4 -5 -5 -5 -5 -5 -5 -5 -5 -5 -5 -5 -5
1 -0 1 3 3 0 -1 -1 -1 -1 -1 -2 -2 -0 -1 -2 -3 -3 -3 -2 -3 -3 -3 -4 -4 -4 -4 -4 -5 -5 -5 -5 -5 -5 -5 -5 -6 -6 -6 -6 -5 -5 -5 -5
0 -0 -1 -1 -0 -1 -1 -1 -1 -1 -1 -1 -1 -2 -1 -2 -3 -3 -3 -3 -4 -4 -4 -4 -5 -5 -5 -5 -5 -5 -6 -6 -6 -6 -6 -6 -6 -6 -6 -6 -6 -6 -6 -6
-1 -1 -1 -1 -1 -2 -1 -1 -1 -1 -2 -2 -2 -2 -3 -3 -3 -4 -4 -4 -4 -5 -5 -5 -5 -5 -5 -6 -6 -6 -6 -6 -6 -6 -6 -6 -7 -7 -7 -7 -7 -6 -6 -7
-2 -2 -2 -1 -2 -2 -1 -2 -2 -2 -3 -3 -2 -2 -4 -4 -5 -5 -4 -4 -5 -5 -5 -5 -6 -6 -6 -6 -6 -6 -7 -7 -7 -7 -7 -7 -7 -7 -7 -7 -7 -7 -7 -7
-3 -3 -3 -3 -2 -1 -0 -3 -3 -3 -4 -4 -4 -4 -5 -5 -5 -4 -4 -5 -5 -5 -6 -6 -6 -6 -6 -7 -7 -7 -7 -7 -7 -7 -7 -7 -7 -8 -8 -8 -8 -8 -7 -8
-3 -3 -3 -3 -3 -2 -2 -3 -4 -4 -4 -5 -5 -5 -5 -5 -6 -5 -4 -5 -5 -5 -6 -6 -6 -7 -7 -7 -7 -7 -7 -8 -8 -8 -8 -8 -8 -8 -8 -8 -8 -8 -8 -8
-4 -4 -3 -4 -2 -1 -1 -4 -4 -4 -3 -5 -5 -6 -6 -6 -6 -6 -5 -5 -6 -6 -6 -7 -7 -7 -7 -8 -8 -8 -8 -8 -8 -8 -8 -8 -8 -9 -9 -9 -9 -9 -9 -9
-4 -4 -4 -4 -3 -3 -4 -5 -4 -3 -2 -4 -5 -5 -6 -7 -6 -5 -6 -6 -6 -6 -7 -7 -7 -8 -8 -8 -8 -8 -8 -8 -8 -9 -9 -9 -9 -9 -9 -9 -9 -9 -9 -9
-4 -5 -5 -5 -4 -3 -5 -6 -5 -4 -4 -5 -5 -5 -5 -6 -6 -6 -6 -7 -7 -7 -7 -8 -8 -8 -8 -9 -9 -9 -9 -9 -9 -9 -9 -9 -9 -9 -10 -10 -10 -10 -10 -10
-5 -5 -5 -4 -3 -5 -6 -5 -5 -5 -5 -5 -5 -5 -6 -6 -7 -7 -7 -7 -7 -8 -8 -8 -8 -8 -9 -9 -9 -9 -9 -9 -9 -9 -9 -9 -10 -10 -10 -10 -10 -10 -10 -10
-7 -7 -6 -6 -6 -6 -6 -5 -5 -5 -5 -5 -5 -6 -6 -7 -7 -7 -8 -8 -8 -8 -8 -9 -9 -9 -9 -9 -10 -10 -10 -10 -10 -10 -10 -10 -10 -10 -10 -10 -10 -10 -11 -11
-6 -8 -7 -7 -7 -7 -6 -5 -5 -5 -5 -6 -6 -6 -7 -7 -7 -8 -8 -8 -8 -9 -9 -9 -9 -9 -10 -10 -10 -10 -10 -10 -10 -10 -10 -10 -11 -11 -11 -11 -11 -11 -11 -11
-8 -8 -7 -5 -6 -7 -6 -5 -5 -6 -6 -6 -6 -7 -7 -8 -8 -8 -8 -9 -9 -9 -9 -10 -10 -10 -10 -10 -10 -10 -10 -10 -11 -11 -11 -11 -11 -11 -11 -11 -11 -11 -11 -11
Wind_Speed
4 5 1 2 2 2 3 3 4 4 1 1 5 7 7 5 4 4 3 2 2 2 1 1 2 3 4 5 5 6 6 6 6 4 4 4 4 5 6 8 10 10 9 9
5 2 1 0 1 2 2 2 3 3 2 1 4 8 6 5 5 5 5 4 4 2 1 1 1 2 3 4 4 5 6 5 5 4 3 2 3 3 4 7 9 10 10 9
4 1 0 3 2 1 1 3 4 3 4 1 3 6 3 1 1 2 3 3 3 3 3 2 1 1 2 3 3 4 5 5 5 6 4 3 3 3 4 6 6 10 10 9
1 2 2 2 1 1 3 2 2 1 2 4 1 5 5 2 2 2 3 3 4 3 3 2 2 1 1 2 2 3 4 4 4 5 4 4 3 3 4 5 5 8 10 9
0 1 2 1 1 1 2 1 0 1 2 2 1 4 7 1 3 4 4 3 4 3 3 3 2 2 2 2 2 2 3 4 4 4 4 3 3 3 4 5 6 7 8 8
0 0 1 1 1 1 1 2 3 3 3 3 4 5 7 4 5 4 3 3 3 2 2 2 1 1 1 2 2 2 3 4 3 4 4 3 4 5 5 6 6 6 5 6
2 1 1 1 2 2 3 3 4 4 2 5 2 4 8 4 3 4 4 3 2 2 1 2 2 1 1 2 3 3 3 4 4 4 4 4 4 4 4 5 5 6 6 6
1 4 1 1 2 2 1 3 4 4 5 5 2 7 6 2 3 2 2 2 1 2 2 3 3 2 1 2 3 3 3 4 3 3 4 4 4 3 4 5 5 5 5 6
3 4 1 1 1 3 3 3 3 4 1 4 7 7 6 2 2 1 1 1 2 2 2 2 2 2 2 2 3 3 4 4 4 4 4 4 4 4 5 6 5 5 6 7
4 3 2 2 1 2 1 6 4 3 2 6 7 6 5 5 5 3 3 3 3 2 2 1 2 2 2 2 2 3 3 3 3 4 4 5 5 5 5 5 6 6 7 8
3 3 2 1 4 4 3 2 3 3 3 4 6 7 4 6 5 5 5 4 4 3 2 2 2 2 2 2 3 3 3 3 4 4 4 5 5 6 6 6 6 7 7 8
3 3 3 5 2 1 3 5 6 4 5 4 4 8 2 3 3 3 4 3 2 2 2 2 2 2 3 3 4 4 4 3 4 4 5 5 6 6 6 7 7 7 7 8
4 4 1 4 1 1 2 3 4 3 3 4 5 8 1 1 1 2 3 3 2 2 2 2 2 2 3 3 4 4 4 4 5 5 5 6 6 6 7 7 8 8 8 8
3 4 6 8 6 3 4 5 6 5 5 7 10 11 8 5 4 4 3 3 2 2 2 2 3 3 3 3 4 5 5 5 5 5 5 6 6 7 7 8 8 8 8 8
4 4 6 7 5 4 7 8 8 11 10 10 10 10 12 8 6 5 3 2 2 3 3 3 4 4 4 4 5 5 5 5 6 6 6 7 7 7 7 7 8 8 8 9
2 3 2 5 4 5 8 11 11 12 10 11 11 12 8 5 2 2 3 3 3 4 4 4 4 4 5 5 6 6 6 6 6 6 7 7 7 7 7 7 8 8 8 9
3 4 2 5 3 4 8 9 10 6 6 7 11 10 4 4 4 4 4 3 4 5 5 5 5 5 5 6 6 6 7 6 6 7 7 7 7 8 8 8 8 8 8 8
6 5 3 2 2 7 6 1 4 6 5 6 6 5 4 5 4 4 3 3 4 5 5 5 5 5 5 5 6 6 6 6 6 7 7 7 7 8 8 8 8 8 8 8
4 5 3 2 4 9 6 2 3 4 6 5 7 7 4 2 3 3 2 2 3 4 4 4 4 5 5 5 6 6 6 6 6 7 8 8 8 8 8 9 9 8 8 9
3 3 3 3 3 7 5 1 1 2 5 3 4 5 3 1 2 4 2 3 3 3 3 4 4 4 4 5 5 5 6 6 7 8 9 8 8 8 9 9 9 8 8 9
3 2 4 6 7 9 4 1 3 3 6 1 2 3 3 4 5 3 3 4 3 4 4 3 3 4 5 5 5 5 6 7 8 8 9 8 8 8 8 7 7 7 8 8
7 6 6 5 6 9 2 5 6 5 1 0 1 2 3 4 3 3 3 4 4 4 4 4 4 5 5 4 4 6 7 7 7 8 8 8 7 7 7 7 7 7 7 7
7 7 6 8 7 2 4 4 2 1 2 2 2 2 2 2 3 4 4 4 4 4 4 4 4 5 5 4 4 6 7 7 7 7 7 7 8 7 7 6 7 6 5 5
4 1 3 5 6 4 4 3 2 2 3 3 2 2 2 3 3 4 4 4 4 5 5 4 5 5 6 6 6 6 7 6 5 6 7 7 6 7 6 6 6 5 5 6
3 3 2 4 5 4 4 4 4 3 2 2 2 2 2 3 3 4 4 5 4 5 5 4 4 6 7 6 7 7 6 5 5 6 6 6 6 6 6 6 5 6 5 6
3 5 5 6 5 4 5 2 2 2 3 3 3 3 2 3 4 4 4 4 4 5 5 5 5 6 7 7 7 7 6 5 5 6 6 5 5 6 5 6 7 9 10 13
Wind_Direction
31 67 77 234 205 166 155 186 252 268 307 272 245 260 259 223 199 210 212 214 227 243 285 4 21 26 29 21 18 17 11 9 11 10 5 358 354 352 0 3 2 3 1 358
50 43 268 167 119 103 135 209 261 292 360 296 285 277 266 222 205 204 203 214 225 240 299 340 5 21 23 13 7 13 8 4 8 2 351 335 323 336 351 357 1 3 360 354
146 216 316 105 84 99 232 207 234 268 334 337 317 294 253 213 192 203 209 216 220 218 230 258 293 331 5 2 357 358 358 357 3 3 3 2 5 356 358 357 356 354 354 354
89 337 77 98 120 144 260 228 212 234 330 296 353 290 264 231 249 239 241 232 231 230 230 237 250 300 315 314 340 353 353 354 3 11 13 15 13 356 336 330 334 342 347 349
269 22 77 151 244 169 227 333 214 194 186 296 264 235 280 223 245 248 241 237 237 230 223 231 244 266 294 321 340 338 345 351 5 12 11 8 359 340 328 332 337 342 346 346
210 4 114 177 42 114 122 48 64 64 85 276 224 200 272 228 227 238 236 243 243 236 233 244 259 284 316 339 355 351 350 347 359 6 3 359 348 341 340 340 337 337 334 337
337 337 13 75 74 40 62 71 9 346 336 258 196 222 252 244 230 219 227 242 241 214 215 239 257 288 312 341 346 345 347 342 347 353 350 341 336 334 328 323 325 328 327 326
245 284 278 45 147 175 171 138 162 233 256 285 286 244 256 255 274 254 233 223 210 213 229 244 246 254 294 316 326 334 334 329 334 340 333 332 333 325 320 316 312 313 312 312
186 250 1 37 20 144 146 171 157 146 244 275 268 278 294 246 294 286 241 212 229 237 244 259 295 310 310 301 309 316 319 318 324 327 324 326 330 324 315 314 309 308 311 314
158 241 287 323 60 25 130 147 113 144 236 271 282 269 257 248 243 236 229 234 247 249 276 312 323 315 294 286 310 328 319 308 312 320 322 326 322 318 315 315 311 310 312 313
144 181 294 339 201 200 139 143 150 157 184 209 275 272 228 218 218 218 231 235 235 241 263 291 309 312 321 336 338 337 328 325 322 320 317 317 314 315 315 312 309 309 310 312
141 138 247 251 250 216 191 187 160 185 234 209 241 272 276 210 222 217 238 246 249 264 286 304 302 320 336 337 335 333 320 312 309 308 310 310 310 314 314 311 309 312 308 309
144 135 322 326 328 11 227 204 183 153 152 197 222 264 312 16 303 244 239 251 264 292 318 320 321 319 317 321 324 323 312 303 306 307 307 310 311 312 309 308 308 311 309 307
138 174 203 230 248 201 231 228 198 177 210 233 233 255 275 279 278 277 264 259 272 286 298 308 312 308 308 312 313 314 312 307 306 306 304 303 302 302 302 303 305 306 307 306
140 219 239 258 266 243 241 242 217 215 218 226 249 249 266 265 259 260 257 265 281 294 297 302 303 304 308 311 311 311 309 314 312 303 300 298 299 300 302 304 305 306 306 306
147 208 247 274 267 258 265 254 235 234 236 241 259 269 271 275 272 260 258 258 277 284 289 295 299 308 308 309 310 311 307 309 309 304 295 299 304 305 305 306 307 307 306 305
170 164 207 269 308 328 272 241 215 211 213 207 236 251 273 287 276 259 251 258 268 280 290 291 291 292 296 298 303 301 300 306 309 307 303 303 304 305 306 308 307 304 304 303
167 164 188 268 357 253 251 128 183 203 237 222 239 262 264 263 279 269 238 241 272 286 292 291 292 295 298 299 301 301 304 306 309 309 308 305 306 305 306 304 303 302 302 300
166 160 170 187 251 274 287 228 169 198 265 228 232 257 281 309 332 294 257 263 264 275 282 282 284 290 297 300 303 307 308 308 309 309 310 308 305 302 302 301 299 300 300 300
86 128 158 176 226 254 264 190 175 117 279 249 211 239 255 80 293 274 308 319 303 303 302 303 306 308 306 306 309 307 306 308 306 305 304 303 301 301 296 293 295 297 298 298
146 167 197 210 236 263 260 196 124 175 263 288 196 219 201 211 231 271 315 318 310 310 316 318 312 307 304 309 313 310 308 305 304 306 305 304 302 298 296 293 293 297 300 302
180 182 195 182 219 256 174 139 181 224 294 179 231 232 225 243 272 296 309 314 319 322 326 323 316 312 313 315 316 311 305 306 310 310 308 306 304 303 308 305 299 298 299 303
204 197 195 200 220 261 166 191 217 206 237 243 240 249 231 255 281 295 303 307 312 315 315 315 310 311 314 314 310 302 304 311 312 312 309 308 310 309 309 305 301 302 302 305
241 216 204 243 261 258 238 239 267 260 248 254 254 257 238 256 272 286 297 306 311 312 312 314 314 314 314 317 315 302 306 311 309 308 308 311 313 312 310 309 307 305 304 305
221 178 216 253 276 301 271 239 248 262 260 278 293 271 248 254 273 276 287 296 301 309 312 311 307 305 308 314 314 315 316 317 314 310 311 315 315 310 308 309 307 309 295 299
203 190 202 242 235 224 252 246 225 242 261 258 265 282 275 251 263 275 279 285 292 301 307 310 309 308 309 314 315 317 320 318 313 316 317 315 313 314 316 317 319 322 326 324
Height
1520 1525 1530 1531 1531 1531 1533 1535 1537 1536 1535 1535 1535 1534 1532 1532 1532 1532 1532 1532 1532 1532 1533 1534 1533 1533 1532 1532 1531 1530 1529 1528 1527 1526 1525 1523 1522 1521 1520 1519 1518 1517 1516 1515
1526 1530 1530 1530 1530 1531 1533 1535 1537 1536 1535 1535 1535 1532 1529 1528 1529 1529 1529 1530 1530 1531 1531 1532 1532 1531 1531 1530 1529 1529 1527 1527 1525 1524 1523 1522 1520 1519 1518 1517 1516 1514 1513 1512
1526 1531 1529 1530 1531 1532 1533 1535 1536 1536 1537 1536 1537 1531 1528 1527 1528 1528 1528 1528 1528 1528 1529 1529 1530 1530 1529 1528 1528 1527 1526 1525 1524 1523 1522 1520 1518 1517 1515 1514 1513 1511 1511 1509
1530 1530 1529 1530 1532 1532 1533 1533 1534 1536 1539 1541 1539 1536 1526 1527 1527 1526 1526 1525 1525 1526 1527 1528 1528 1528 1528 1527 1527 1526 1525 1523 1522 1521 1519 1517 1515 1514 1513 1511 1510 1509 1507 1506
1531 1530 1530 1531 1532 1532 1534 1534 1535 1537 1540 1543 1542 1541 1528 1527 1526 1525 1524 1523 1524 1524 1525 1526 1526 1526 1526 1526 1525 1524 1523 1522 1520 1518 1517 1515 1514 1512 1511 1509 1507 1506 1505 1504
1531 1531 1531 1531 1532 1532 1534 1535 1537 1541 1543 1542 1538 1542 1528 1526 1523 1522 1522 1522 1522 1523 1524 1525 1525 1525 1525 1524 1524 1522 1521 1520 1518 1517 1515 1513 1511 1510 1508 1506 1504 1503 1501 1501
1532 1532 1531 1531 1532 1533 1534 1538 1541 1540 1544 1537 1537 1536 1527 1521 1520 1519 1519 1520 1520 1521 1522 1523 1523 1523 1522 1522 1521 1520 1519 1517 1516 1514 1513 1511 1509 1507 1505 1503 1502 1500 1498 1497
1533 1535 1532 1532 1532 1534 1536 1536 1542 1543 1544 1540 1538 1535 1523 1519 1517 1517 1517 1518 1519 1520 1520 1521 1521 1521 1520 1520 1519 1518 1516 1515 1513 1512 1511 1509 1507 1505 1503 1501 1499 1497 1495 1493
1534 1533 1533 1532 1532 1532 1535 1539 1540 1548 1551 1552 1538 1532 1523 1518 1516 1516 1516 1517 1517 1518 1519 1519 1519 1518 1518 1518 1517 1515 1513 1512 1511 1509 1508 1506 1504 1502 1500 1498 1496 1494 1492 1490
1532 1536 1534 1533 1533 1533 1534 1538 1545 1546 1545 1542 1533 1531 1523 1517 1516 1516 1516 1516 1516 1517 1517 1517 1517 1517 1516 1515 1514 1512 1511 1509 1508 1507 1505 1503 1501 1499 1497 1495 1493 1491 1489 1487
1532 1536 1537 1535 1535 1534 1536 1539 1540 1545 1545 1545 1541 1525 1515 1513 1513 1513 1514 1514 1515 1515 1515 1515 1515 1514 1513 1512 1511 1510 1508 1507 1505 1503 1502 1500 1498 1496 1493 1491 1489 1487 1485 1483
1532 1537 1539 1535 1533 1533 1533 1535 1539 1541 1543 1548 1545 1526 1512 1511 1511 1512 1512 1513 1513 1513 1513 1512 1512 1512 1510 1509 1508 1507 1505 1504 1502 1500 1498 1496 1494 1492 1489 1487 1485 1483 1480 1478
1531 1536 1536 1530 1535 1536 1535 1534 1536 1538 1543 1548 1545 1523 1512 1511 1510 1511 1511 1511 1511 1511 1510 1510 1510 1509 1508 1506 1505 1503 1502 1500 1498 1496 1494 1492 1490 1488 1485 1483 1481 1478 1476 1474
1527 1533 1532 1526 1523 1529 1532 1532 1533 1535 1539 1538 1530 1516 1511 1510 1510 1509 1509 1509 1509 1509 1508 1507 1506 1505 1504 1503 1501 1500 1498 1496 1494 1492 1490 1488 1486 1483 1481 1479 1476 1474 1471 1469
1526 1530 1530 1528 1526 1527 1526 1525 1527 1528 1525 1525 1516 1515 1507 1507 1507 1507 1507 1506 1506 1506 1505 1504 1503 1502 1500 1499 1497 1496 1494 1492 1490 1488 1486 1484 1482 1479 1477 1474 1472 1469 1467 1464
1526 1529 1530 1528 1525 1526 1524 1519 1520 1520 1519 1518 1515 1511 1505 1505 1505 1505 1504 1504 1503 1503 1502 1501 1500 1499 1497 1495 1494 1492 1490 1488 1486 1484 1481 1479 1477 1475 1472 1470 1467 1465 1462 1460
1527 1529 1530 1527 1527 1524 1519 1511 1512 1513 1512 1512 1511 1506 1503 1504 1503 1503 1502 1502 1501 1500 1499 1498 1497 1495 1494 1492 1490 1488 1486 1484 1482 1480 1477 1475 1473 1470 1468 1465 1463 1460 1457 1455
1525 1527 1531 1531 1529 1523 1506 1505 1505 1507 1507 1507 1504 1502 1502 1502 1501 1500 1500 1500 1499 1498 1496 1495 1493 1492 1491 1489 1487 1485 1483 1480 1478 1475 1473 1471 1468 1466 1463 1461 1458 1455 1453 1450
1520 1524 1530 1531 1528 1515 1506 1504 1505 1507 1505 1502 1502 1501 1500 1500 1499 1498 1498 1497 1496 1495 1494 1492 1491 1489 1487 1486 1483 1481 1479 1476 1474 1472 1469 1467 1464 1461 1458 1456 1453 1450 1448 1445
1522 1523 1527 1529 1524 1512 1501 1503 1502 1504 1503 1498 1498 1498 1499 1499 1501 1498 1496 1495 1494 1493 1491 1489 1488 1486 1484 1482 1480 1477 1475 1472 1470 1467 1465 1463 1460 1457 1454 1451 1449 1446 1444 1440
1523 1525 1526 1526 1523 1509 1503 1502 1502 1506 1499 1497 1496 1496 1497 1497 1497 1495 1494 1493 1492 1490 1488 1486 1484 1482 1480 1478 1476 1473 1471 1469 1466 1464 1461 1458 1456 1453 1450 1447 1445 1442 1439 1436
1515 1520 1523 1523 1522 1509 1501 1501 1502 1498 1495 1495 1494 1494 1495 1494 1493 1492 1491 1490 1489 1487 1485 1483 1481 1479 1477 1475 1473 1470 1467 1465 1463 1460 1457 1454 1452 1449 1446 1443 1441 1438 1436 1432
1509 1507 1507 1507 1502 1497 1496 1495 1494 1494 1494 1493 1493 1493 1493 1492 1491 1490 1489 1487 1486 1484 1482 1480 1478 1476 1474 1472 1469 1466 1464 1461 1458 1456 1453 1451 1448 1445 1443 1440 1437 1434 1432 1429
1504 1503 1503 1502 1496 1494 1494 1493 1493 1493 1492 1491 1491 1491 1490 1489 1488 1487 1486 1484 1483 1481 1479 1477 1475 1472 1470 1468 1466 1463 1460 1458 1455 1452 1450 1447 1444 1442 1440 1437 1434 1432 1429 1426
1498 1501 1500 1498 1494 1492 1490 1490 1490 1490 1490 1489 1489 1489 1488 1487 1485 1484 1483 1481 1480 1478 1476 1474 1472 1470 1467 1465 1462 1460 1457 1455 1452 1449 1447 1444 1442 1439 1437 1434 1432 1429 1427 1425
1495 1496 1496 1491 1489 1489 1487 1488 1488 1488 1487 1487 1486 1485 1485 1484 1483 1482 1480 1479 1477 1475 1473 1471 1469 1467 1465 1462 1459 1457 1455 1452 1450 1447 1444 1442 1439 1437 1434 1432 1429 1427 1425 1422